Tracking 27371 objects as of 8-Jun-2023
HD Live streaming from Space Station
objects crossing your sky now

COSMOS 374

Track COSMOS 374 now!
10-day predictions
COSMOS 374 is classified as:


NORAD ID: 4594
Int'l Code: 1970-089A
Perigee: 591.7 km
Apogee: 1,984.0 km
Inclination: 63.0 °
Period: 111.2 minutes
Semi major axis: 7658 km
RCS: 0.5589 m2 (medium)
Launch date: October 23, 1970
Source: Commonwealth of Independent States (former USSR) (CIS)
Launch site: TYURATAM MISSILE AND SPACE COMPLEX (TTMTR)
Your satellite tracking list
Your tracking list is empty




NASA's NSSDC Master Catalog

Two Line Element Set (TLE):
1  4594U 70089A   23158.86260012  .00000025  00000-0  60916-4 0  9993
2  4594  62.9561 293.5725 0908934 320.6143  33.2018 12.95259193525755
Source of the keplerian elements: AFSPC